Change the Weather History Date:

Friday, March 22, 2013

  Actual Average Record
Temperature  
Mean Temperature 24 °F 35 °F  
Max Temperature 31 °F 48 °F 72 °F (2004)
Min Temperature 17 °F 22 °F 14 °F (2008)
Degree Days  
Heating Degree Days 41 30  
Month to date heating degree days 755 761  
Since 1 July heating degree days 7074 7087  
Cooling Degree Days 0 0  
Month to date cooling degree days 0 0  
Year to date cooling degree days 0 0  
Moisture  
Dew Point 17 °F    
Average Humidity 69    
Maximum Humidity 88    
Minimum Humidity 50    
Precipitation  
Precipitation 0.10 in 0.05 in 0.13 in (2014)
Month to date precipitation 0.64 0.84  
Year to date precipitation 1.68 2.54  
Sea Level Pressure  
Sea Level Pressure 29.88 in    
Wind  
Wind Speed 4 mph (NW)    
Max Wind Speed 16 mph    
Max Gust Speed 21 mph    
Visibility 5 miles    
Events Fog , Snow    
T = Trace of Precipitation, MM = Missing Value Source: NWS Daily Summary

Daily Weather History Graph

Daily Weather History Graph

Search for Another Location

Airport or City:

Trip Planner

Search our weather history database for the weather conditions in past years. The results will help you decide how hot, cold, wet, or windy it might be!

Date:

Astronomy

Mar. 22, 2013 Rise Set
Actual Time 7:09 AM MDT 7:24 PM MDT
Civil Twilight 6:42 AM MDT 7:51 PM MDT
Nautical Twilight 6:10 AM MDT 8:23 PM MDT
Astronomical Twilight 5:37 AM MDT 8:56 PM MDT
Moon 2:53 PM MDT (3/22) 4:12 AM MDT (3/22)
Length of Visible Light 13h 09m
Length of Day
12h 14m
Waxing Gibbous, 78% of the Moon is Illuminated
Mar 22
Waxing Gibbous
Mar 27
Full
Apr 2
Last Quarter
Apr 10
New
Apr 18
First Quarter

Hourly Weather History & Observations

Time (MDT) Temp. Windchill Dew Point Humidity Pressure Visibility Wind Dir Wind Speed Gust Speed Precip Events Conditions
12:53 AM 23.0 °F 18.4 °F 12.0 °F 63% 30.02 in 10.0 mi WSW 3.5 mph - N/A   Clear
1:53 AM 21.9 °F 17.2 °F 14.0 °F 72% 30.01 in 10.0 mi ENE 3.5 mph - N/A   Clear
2:53 AM 21.0 °F 14.6 °F 12.0 °F 68% 29.99 in 10.0 mi East 4.6 mph - N/A   Clear
3:53 AM 21.0 °F 16.2 °F 12.0 °F 68% 29.96 in 10.0 mi ENE 3.5 mph - N/A   Clear
4:53 AM 19.9 °F 14.9 °F 10.9 °F 68% 29.93 in 10.0 mi East 3.5 mph - N/A   Clear
5:53 AM 18.0 °F - 10.9 °F 74% 29.93 in 10.0 mi Calm Calm - N/A   Clear
6:53 AM 18.0 °F 9.8 °F 9.0 °F 68% 29.93 in 10.0 mi ENE 5.8 mph - N/A   Clear
7:53 AM 17.1 °F 11.7 °F 10.9 °F 77% 29.95 in 10.0 mi SSW 3.5 mph - N/A   Clear
8:53 AM 21.0 °F 16.2 °F 10.0 °F 63% 29.95 in 10.0 mi East 3.5 mph - N/A   Partly Cloudy
9:53 AM 24.1 °F 18.2 °F 12.0 °F 60% 29.95 in 10.0 mi Variable 4.6 mph - N/A   Mostly Cloudy
10:53 AM 26.1 °F 21.9 °F 10.9 °F 53% 29.93 in 10.0 mi SSE 3.5 mph - N/A   Mostly Cloudy
11:53 AM 28.9 °F - 12.0 °F 49% 29.91 in 10.0 mi Calm Calm - N/A   Overcast
12:53 PM 28.9 °F - 14.0 °F 54% 29.91 in 10.0 mi Calm Calm - N/A   Overcast
1:53 PM 30.0 °F - 16.0 °F 56% 29.88 in 10.0 mi Calm Calm - N/A   Overcast
2:53 PM 27.0 °F 18.0 °F 19.0 °F 72% 29.90 in 6.0 mi NNE 9.2 mph - N/A   Haze
3:13 PM 26.6 °F - 17.6 °F 69% 29.79 in 7.0 mi Calm Calm - 0.00 in Snow Light Snow
3:31 PM 26.6 °F 22.6 °F 17.6 °F 69% 29.78 in 1.8 mi North 3.5 mph - 0.00 in Snow Light Snow
3:42 PM 26.6 °F - 19.4 °F 74% 29.78 in 3.0 mi Calm Calm - 0.00 in Snow Light Snow
3:53 PM 26.1 °F 19.4 °F 21.0 °F 81% 29.91 in 2.5 mi SE 5.8 mph - 0.00 in Snow Light Snow
4:06 PM 26.6 °F 20.0 °F 21.2 °F 80% 29.78 in 3.0 mi SE 5.8 mph - 0.00 in Snow Light Snow
4:18 PM 26.6 °F 20.0 °F 19.4 °F 74% 29.78 in 2.5 mi SE 5.8 mph - 0.00 in Snow Light Snow
4:25 PM 26.6 °F 19.1 °F 21.2 °F 80% 29.78 in 1.8 mi ESE 6.9 mph - 0.00 in Snow Light Snow
4:30 PM 26.6 °F 20.0 °F 19.4 °F 74% 29.78 in 3.0 mi SE 5.8 mph - 0.00 in Snow Light Snow
4:53 PM 26.1 °F 20.5 °F 19.0 °F 75% 29.91 in 10.0 mi South 4.6 mph - 0.00 in   Overcast
5:53 PM 27.0 °F 21.6 °F 18.0 °F 69% 29.91 in 10.0 mi SSE 4.6 mph - N/A   Overcast
6:53 PM 27.0 °F - 15.1 °F 61% 29.92 in 10.0 mi Calm Calm - N/A   Overcast
7:36 PM 26.6 °F 19.1 °F 19.4 °F 74% 29.80 in 2.0 mi WNW 6.9 mph - 0.00 in Snow Light Snow
7:40 PM 24.8 °F 16.9 °F 19.4 °F 80% 29.81 in 1.0 mi West 6.9 mph - 0.00 in Snow Light Snow
7:45 PM 24.8 °F 20.5 °F 19.4 °F 80% 29.81 in 0.5 mi WNW 3.5 mph - 0.01 in Snow Snow
7:48 PM 24.8 °F 17.9 °F 19.4 °F 80% 29.81 in 0.5 mi Variable 5.8 mph - 0.01 in Snow Snow
7:53 PM 24.1 °F 14.4 °F 19.9 °F 84% 29.96 in 0.5 mi NW 9.2 mph - 0.02 in Fog , Snow Snow
8:26 PM 23.0 °F 17.0 °F 19.4 °F 86% 29.82 in 1.2 mi North 4.6 mph - 0.01 in Snow Light Snow
8:48 PM 23.0 °F 17.0 °F 19.4 °F 86% 29.83 in 1.2 mi NNW 4.6 mph - 0.02 in Snow Light Snow
8:53 PM 23.0 °F 17.0 °F 19.0 °F 85% 29.97 in 1.5 mi North 4.6 mph - 0.02 in Snow Light Snow
8:58 PM 23.0 °F 18.4 °F 19.4 °F 86% 29.83 in 2.0 mi North 3.5 mph - 0.00 in Snow Light Snow
9:08 PM 23.0 °F - 19.4 °F 86% 29.83 in 4.0 mi Calm Calm - 0.00 in Snow Light Snow
9:25 PM 23.0 °F - 19.4 °F 86% 29.83 in 2.0 mi Calm Calm - 0.00 in Snow Light Snow
9:33 PM 23.0 °F - 19.4 °F 86% 29.83 in 1.2 mi Calm Calm - 0.00 in Snow Light Snow
9:41 PM 23.0 °F 17.0 °F 19.4 °F 86% 29.83 in 0.8 mi NW 4.6 mph - 0.01 in Snow Light Snow
9:48 PM 23.0 °F 17.0 °F 19.4 °F 86% 29.84 in 0.8 mi NW 4.6 mph - 0.01 in Snow Light Snow
9:53 PM 23.0 °F 18.4 °F 19.9 °F 88% 29.96 in 0.8 mi NW 3.5 mph - 0.02 in Snow Light Snow
10:00 PM 23.0 °F 18.4 °F 19.4 °F 86% 29.84 in 0.8 mi NW 3.5 mph - 0.00 in Snow Light Snow
10:48 PM 23.0 °F 15.8 °F 19.4 °F 86% 29.83 in 1.0 mi West 5.8 mph - 0.03 in Snow Light Snow
10:53 PM 23.0 °F 15.8 °F 19.9 °F 88% 29.95 in 1.0 mi West 5.8 mph - 0.03 in Snow Light Snow
11:04 PM 23.0 °F 12.4 °F 19.4 °F 86% 29.83 in 1.0 mi West 10.4 mph - 0.01 in Snow Light Snow
11:08 PM 21.2 °F 10.1 °F 17.6 °F 86% 29.83 in 0.8 mi WNW 10.4 mph - 0.01 in Snow Light Snow
11:17 PM 21.2 °F 8.9 °F 17.6 °F 86% 29.83 in 0.8 mi WNW 12.7 mph - 0.01 in Snow Light Snow
11:21 PM 21.2 °F 10.9 °F 15.8 °F 80% 29.82 in 1.2 mi WNW 9.2 mph - 0.01 in Snow Light Snow
11:37 PM 21.2 °F 10.9 °F 15.8 °F 80% 29.83 in 2.0 mi West 9.2 mph - 0.01 in Snow Light Snow
11:45 PM 21.2 °F 11.7 °F 15.8 °F 80% 29.83 in 2.5 mi WSW 8.1 mph - 0.01 in Snow Light Snow
11:53 PM 21.0 °F 11.4 °F 16.0 °F 81% 29.94 in 2.5 mi WSW 8.1 mph - 0.01 in Snow Light Snow